EHI
2 6 17 26 22 9 2 1 0 0 0 0 0 0 0 0 0 0 4 10 12 9 8 9 8 6 3 2 2 3 3 1 0 1 1 1 1 1 1 0 0 0 0 0 0 0 0 0 0
4 11 23 26 16 5 1 0 0 0 0 0 0 0 0 0 0 1 5 10 11 8 7 7 8 7 5 3 3 3 3 2 0 0 0 0 0 1 0 0 0 0 0 0 0 0 0 0 0
14 21 27 21 10 2 0 0 0 0 0 0 0 0 0 0 0 3 7 11 10 7 6 6 7 7 6 5 4 3 3 1 0 0 0 0 0 1 0 0 0 0 0 0 0 0 0 0 0
29 30 25 14 6 1 0 0 0 0 0 0 0 0 0 1 3 6 10 11 10 8 6 5 6 6 6 6 4 3 2 1 0 0 0 0 0 0 0 0 0 0 0 0 0 0 0 0 0
37 31 19 8 2 0 0 0 0 0 0 0 1 1 1 3 6 9 11 11 11 10 8 6 6 7 6 6 5 4 3 1 1 1 0 0 0 0 0 0 0 1 0 0 0 1 1 0 0
32 24 12 3 0 0 0 0 0 0 0 0 1 2 3 6 8 9 10 11 11 11 9 7 7 7 6 6 6 5 3 3 2 1 0 0 0 0 0 0 0 0 0 1 1 2 3 2 2
21 14 5 1 0 0 0 0 0 0 0 0 1 3 5 7 7 8 9 11 11 9 8 7 7 8 6 6 5 4 3 3 2 1 0 0 0 1 2 2 2 2 2 2 3 4 5 6 6
8 5 1 0 0 0 0 0 0 0 0 0 1 4 7 7 6 7 9 10 10 9 8 7 6 7 8 7 6 5 3 3 2 1 1 1 2 4 5 6 8 8 6 5 5 6 8 9 10
2 1 0 0 0 0 0 0 0 0 0 1 3 7 8 7 7 9 10 11 10 10 9 7 5 6 7 7 7 7 5 3 3 4 6 5 5 6 6 8 13 14 11 9 8 9 10 10 10
2 1 0 0 0 0 0 0 0 0 1 3 6 9 8 7 8 10 11 10 9 9 9 8 6 5 5 6 7 7 7 5 4 6 9 8 7 5 4 8 15 18 15 12 11 12 11 8 7
1 1 0 0 0 0 0 0 0 0 1 5 8 8 7 6 8 10 10 8 6 6 7 7 6 5 5 5 5 7 8 6 6 8 9 7 5 3 3 7 15 19 15 11 11 11 9 6 4
0 0 0 0 0 0 0 0 0 0 2 5 8 7 5 6 8 9 9 6 4 4 6 6 7 8 8 6 5 6 7 5 5 8 9 6 3 2 2 6 12 14 12 10 10 10 8 7 5
0 0 0 0 0 0 0 0 0 0 1 4 6 6 6 6 8 9 10 7 5 5 7 8 11 15 14 9 7 6 6 4 4 7 9 8 5 4 4 7 10 9 9 9 10 10 10 8 7
0 0 0 0 0 0 0 0 0 0 2 4 6 7 7 7 7 9 10 10 9 8 10 13 16 20 19 13 8 7 7 6 5 7 11 11 8 7 7 8 9 9 9 11 13 13 11 9 7
0 0 0 0 0 0 0 0 0 1 3 5 7 9 9 8 7 8 9 10 12 14 15 16 16 20 21 15 10 9 7 7 7 10 13 15 13 12 12 11 10 9 10 14 17 15 12 10 8
0 0 0 0 0 0 0 1 1 1 3 6 8 10 11 10 8 7 8 11 16 22 24 18 13 18 23 19 15 12 10 9 10 12 15 17 16 16 17 15 11 9 10 14 17 17 16 13 11
0 0 0 0 0 0 0 1 2 1 3 6 8 10 12 11 10 9 9 13 22 32 32 22 16 20 24 23 18 15 14 15 15 15 15 15 15 15 17 15 11 9 9 11 13 16 19 19 16
0 0 0 0 0 0 0 1 1 2 3 5 7 9 10 11 11 11 11 17 28 38 39 31 25 24 25 24 18 15 17 20 20 18 17 16 15 14 14 12 10 9 8 10 12 14 18 21 20
0 0 0 0 0 0 0 1 2 2 4 6 7 8 10 12 15 16 16 21 31 43 47 42 34 30 28 26 20 17 18 20 21 20 20 21 19 16 14 12 11 11 11 12 14 15 17 19 20
0 0 0 0 0 0 1 2 2 3 4 6 8 10 13 18 23 25 24 25 34 46 50 48 43 36 29 25 21 19 18 18 19 21 24 24 21 18 15 13 13 13 14 14 15 16 16 17 17
0 0 0 0 0 0 2 3 3 5 6 6 8 11 15 22 29 34 34 31 37 47 50 51 52 45 32 25 21 20 21 20 20 25 30 29 24 18 15 15 15 14 15 14 14 14 15 15 15
0 0 0 0 0 0 1 2 4 6 7 7 9 12 15 22 30 36 38 36 36 44 49 55 60 54 42 32 25 23 24 24 23 29 35 35 28 19 14 15 16 15 15 14 13 14 15 15 14
0 0 0 0 0 0 0 1 3 5 8 10 11 14 16 20 26 32 38 39 37 38 44 57 65 61 53 43 32 29 28 26 26 29 32 33 29 21 16 15 16 15 12 11 12 12 14 14 13
0 0 0 0 0 0 0 1 2 4 7 10 12 14 15 18 22 28 36 42 41 38 42 56 66 66 59 50 42 38 35 31 30 30 28 28 27 24 20 18 17 14 11 10 11 10 11 12 12
0 0 0 0 0 0 0 2 4 5 6 7 9 11 12 14 19 26 34 41 44 45 48 58 68 70 64 57 51 48 43 37 34 32 29 26 25 27 26 23 21 17 13 13 13 13 12 13 12
0 0 0 0 0 0 1 3 5 6 4 3 5 8 10 12 18 25 32 40 46 50 54 61 69 70 65 58 54 51 45 37 34 34 30 25 24 25 28 30 29 23 18 17 18 17 17 17 15
0 0 0 0 0 0 1 4 6 4 2 1 4 9 12 15 20 25 31 39 46 50 53 58 64 66 62 56 52 50 45 38 35 34 30 25 22 23 29 35 35 29 24 22 21 20 21 19 16
0 0 0 0 0 0 0 2 4 3 1 0 4 11 15 19 23 26 29 34 40 43 46 50 56 59 57 52 49 48 46 41 37 35 33 29 25 25 30 34 34 33 29 26 24 23 22 20 17
0 0 0 0 0 0 0 2 3 3 2 2 6 14 19 20 22 25 27 28 31 33 37 42 49 54 53 50 47 47 45 42 38 37 35 32 29 28 30 32 33 33 31 29 26 24 22 20 18
0 0 0 0 0 0 1 2 4 4 3 4 9 16 20 20 20 23 25 25 26 28 31 37 45 50 50 48 46 45 44 42 38 37 37 34 31 29 29 31 32 32 30 29 27 24 21 21 20
Wind_Speed
9 10 9 6 4 1 7 12 13 13 13 13 12 12 16 15 11 10 9 13 14 13 12 12 12 12 12 11 11 11 12 13 13 13 12 12 11 11 10 10 10 9 9 8 7 7 7 6 6
10 11 8 5 2 4 9 12 13 13 12 11 13 15 16 16 14 13 11 12 14 14 12 12 13 12 12 12 12 12 13 13 13 12 11 11 10 10 10 9 9 8 8 7 7 6 6 6 5
12 12 6 2 2 6 10 12 12 11 10 10 13 14 13 11 13 11 12 14 14 14 13 12 13 12 12 12 11 12 12 12 12 12 11 10 10 10 9 9 8 7 7 6 6 5 5 5 4
8 7 4 1 6 10 11 10 10 10 9 10 11 12 12 12 11 13 14 14 14 14 14 13 12 12 11 11 11 11 12 11 11 11 10 10 9 9 8 8 7 7 6 5 5 4 4 4 3
8 5 1 4 9 11 10 9 10 9 10 12 14 14 13 13 14 14 13 14 13 14 14 13 12 12 11 11 11 11 11 11 11 10 9 8 8 8 7 7 6 5 5 5 5 4 3 3 3
5 3 1 6 10 10 9 9 9 11 11 12 14 14 12 12 13 12 12 12 13 13 14 13 13 11 11 11 11 11 10 10 10 9 8 8 7 7 7 6 6 5 5 5 4 4 4 3 4
6 1 2 5 8 9 8 9 8 9 10 10 12 13 12 12 11 11 11 12 12 13 12 12 12 11 11 11 11 10 10 9 9 8 7 7 7 6 6 6 6 5 5 5 5 5 4 4 5
4 1 3 4 8 9 9 9 9 10 9 10 9 10 12 13 12 11 11 10 9 10 10 10 11 11 10 9 10 10 10 9 8 8 7 7 6 6 7 7 7 6 6 6 6 6 6 6 6
3 1 2 5 7 8 8 9 9 8 9 10 11 14 16 15 14 12 11 9 8 8 7 8 9 9 10 10 11 10 10 8 8 7 8 6 5 5 6 6 8 8 7 7 7 7 7 7 8
3 2 3 6 7 7 7 7 8 8 10 13 15 16 17 14 13 13 12 11 9 8 8 6 7 8 7 7 8 6 6 6 5 4 5 4 3 3 5 7 8 8 8 8 9 9 8 8 5
3 4 3 7 7 6 6 6 7 9 8 12 15 16 15 14 12 12 11 11 10 9 7 7 6 6 5 4 4 3 3 4 4 4 3 3 2 3 3 4 5 5 7 5 6 7 6 6 4
3 3 3 6 5 5 7 6 7 9 10 12 14 15 14 13 11 10 10 10 8 8 8 7 6 5 4 3 2 3 3 3 3 3 3 2 1 1 2 2 3 3 3 3 3 3 4 3 3
3 3 3 4 5 7 6 6 7 11 12 13 14 14 13 12 10 9 9 9 9 8 8 7 6 5 4 2 1 3 2 3 3 3 2 1 1 1 1 1 1 2 2 2 2 2 2 2 3
2 3 3 2 4 6 6 7 7 10 12 12 13 13 12 12 12 10 9 9 8 7 7 7 7 6 4 3 2 1 2 2 2 2 2 1 1 1 0 1 1 1 1 1 2 3 2 2 2
1 1 1 2 2 5 6 6 7 10 12 11 11 12 12 11 11 10 10 9 9 7 6 7 7 7 5 4 3 3 2 3 2 3 3 1 1 1 0 1 1 1 2 2 2 2 2 2 2
5 4 3 3 3 4 5 5 8 10 11 11 11 11 11 10 11 10 10 9 9 7 6 6 6 8 6 4 3 2 2 2 1 2 3 2 2 2 1 1 1 1 1 2 2 1 1 1 1
5 5 4 5 5 3 3 5 10 10 11 10 10 11 11 11 11 10 11 10 9 7 6 5 4 6 6 5 3 2 2 1 1 1 2 2 1 1 1 1 1 2 1 1 1 1 1 1 1
5 5 4 4 4 3 3 6 11 11 11 10 10 11 11 12 11 11 11 11 10 8 7 6 5 5 5 4 3 2 2 2 2 2 2 3 2 1 1 1 1 1 1 1 1 0 0 1 2
8 8 5 2 2 3 4 6 10 12 10 11 10 10 11 12 12 11 11 11 11 9 8 7 7 6 4 3 3 3 2 2 2 3 3 3 2 1 1 1 1 1 0 0 1 1 1 1 1
8 6 7 4 3 5 5 5 8 10 10 11 11 11 12 12 12 11 10 10 11 10 9 7 6 7 6 4 3 2 2 2 2 1 2 2 2 1 2 1 1 0 0 0 1 1 1 2 1
8 7 6 6 5 6 6 4 4 6 8 9 11 12 13 14 14 12 11 11 11 10 10 8 7 6 6 5 3 2 2 1 1 1 2 2 2 1 1 1 1 1 1 1 2 2 2 2 2
8 7 7 9 9 7 7 4 6 6 6 7 8 10 11 13 14 14 13 11 11 11 10 8 7 6 6 5 4 4 3 2 2 2 2 2 2 1 1 1 1 1 1 0 2 0 2 2 2
8 8 9 11 11 10 8 4 6 8 7 7 8 9 10 12 13 14 13 12 11 11 10 9 7 6 6 5 4 4 3 2 1 2 2 2 2 1 1 1 0 1 1 1 1 1 2 1 1
7 8 10 11 11 10 6 4 3 5 7 8 9 9 9 11 12 12 11 11 10 10 10 10 9 7 6 6 5 4 3 2 2 2 2 2 2 2 2 1 1 1 1 1 1 1 1 1 2
8 7 6 7 5 6 5 4 3 4 6 7 8 9 9 10 11 11 11 10 10 10 10 10 10 8 7 6 5 4 4 3 3 2 3 2 2 2 2 2 2 1 1 1 0 1 1 1 1
8 9 8 8 7 5 4 3 3 5 5 6 7 8 9 10 11 11 11 10 10 10 10 10 10 9 8 7 5 4 4 3 2 2 2 2 1 2 3 2 2 2 1 1 1 1 1 1 1
9 9 10 9 11 7 3 2 2 4 3 3 7 9 7 8 8 9 9 10 10 9 9 9 9 8 8 7 6 5 4 3 3 2 2 1 1 2 2 3 2 1 1 1 1 0 1 1 1
11 11 8 7 6 8 6 4 2 3 3 3 5 7 8 8 8 8 7 8 8 9 8 8 9 8 7 6 5 5 4 4 3 2 2 2 1 1 1 2 2 1 2 1 1 1 0 0 1
10 11 8 8 7 8 6 2 3 5 3 3 5 8 8 7 7 7 6 7 7 8 9 9 9 8 7 6 5 5 5 5 4 3 2 2 1 1 2 2 2 2 2 2 1 1 1 1 1
11 10 9 8 8 9 8 2 3 4 2 2 3 6 7 5 6 6 5 5 5 6 8 9 9 9 8 7 6 5 5 5 5 4 3 3 2 2 2 2 2 2 2 2 2 2 1 1 0
Wind_Direction
204 218 220 238 240 113 64 68 66 66 65 60 59 65 63 59 70 91 110 109 111 110 110 107 99 99 99 101 103 105 109 115 117 118 117 114 113 111 109 106 107 109 109 108 107 108 105 104 103
229 223 226 245 263 79 75 74 71 70 76 76 69 70 71 70 82 100 112 115 115 112 110 107 106 101 100 101 102 104 109 114 116 119 119 119 117 115 114 113 113 113 114 115 114 114 113 110 109
252 250 252 240 47 72 77 79 82 84 86 83 77 66 71 82 92 106 120 123 116 110 108 107 109 104 103 103 102 106 109 113 116 118 120 122 121 121 123 123 123 122 122 123 125 125 125 123 128
242 237 243 38 60 68 78 87 90 90 87 85 86 81 76 79 98 113 124 123 118 117 112 111 112 110 107 106 105 108 111 113 118 120 120 122 125 126 129 130 129 130 128 129 133 132 134 138 147
238 256 174 84 76 80 85 88 92 88 80 81 88 93 90 91 104 119 126 123 121 116 115 119 117 114 110 108 108 111 115 116 120 123 123 126 131 133 134 134 138 140 138 138 143 147 156 167 178
256 257 63 81 87 85 90 89 89 90 94 97 102 100 99 111 116 124 125 123 117 117 119 123 124 120 117 115 114 115 118 119 123 127 130 135 139 143 145 149 154 157 158 162 166 169 178 192 204
249 265 73 85 94 91 89 92 92 94 93 95 105 109 118 123 124 125 120 116 121 122 125 133 135 132 128 124 122 123 125 127 129 131 138 149 153 159 163 166 170 172 174 179 182 186 194 207 220
263 324 85 90 94 95 97 94 91 97 97 110 113 117 128 131 133 127 119 115 118 122 128 139 141 141 144 139 136 136 137 140 145 147 151 155 164 175 182 182 184 186 189 192 198 205 210 216 226
259 304 75 90 91 96 100 101 101 106 103 89 85 105 126 136 136 131 125 123 124 123 132 140 144 150 147 144 145 151 151 154 159 161 169 173 187 180 187 183 181 192 199 203 208 215 220 223 228
180 101 79 84 94 98 102 108 112 108 106 104 101 109 128 140 146 145 142 141 142 139 138 140 145 150 142 136 142 158 157 156 176 161 172 191 196 185 166 170 187 198 208 216 219 224 228 232 226
89 96 96 88 93 105 106 102 107 112 116 121 127 134 141 150 154 150 147 145 146 144 143 141 141 128 119 123 141 152 147 151 165 155 177 182 180 160 155 169 188 200 208 222 212 218 226 226 222
80 82 87 91 98 101 101 102 101 104 109 118 128 138 147 156 154 153 149 145 143 144 147 145 134 115 109 115 138 148 147 149 154 157 183 163 162 158 168 173 180 195 198 206 209 219 228 235 235
95 95 87 104 117 104 108 112 107 108 116 126 133 143 153 152 152 149 143 141 148 150 148 137 130 120 113 111 170 140 143 139 144 146 164 178 155 137 161 126 212 214 182 195 211 219 239 259 251
78 68 64 95 114 124 123 114 113 120 128 134 143 150 155 153 155 152 151 151 149 148 144 138 141 138 145 165 179 141 141 143 148 145 156 188 122 112 41 185 247 210 209 201 202 208 217 233 253
218 170 162 171 169 137 126 120 130 135 136 144 151 154 156 157 156 160 160 158 152 148 142 143 158 152 163 181 189 175 179 166 162 147 150 179 136 151 222 241 243 221 210 198 211 216 217 229 237
251 219 194 189 214 167 167 135 141 150 147 153 159 156 158 160 163 164 163 161 153 152 149 167 168 152 162 183 203 198 182 149 144 144 148 169 172 207 245 245 256 241 231 202 196 198 213 251 244
265 231 211 197 212 188 162 140 151 160 156 158 162 161 164 167 170 166 166 164 157 153 154 166 157 150 162 178 194 214 165 161 173 172 149 165 209 218 256 251 266 261 248 232 237 130 164 251 267
263 260 238 214 190 201 173 158 161 165 164 164 170 168 171 172 174 170 171 164 159 157 157 164 165 163 168 177 190 219 195 186 196 186 164 163 194 205 254 231 258 286 327 349 354 39 235 240 255
238 254 265 248 219 240 208 175 171 166 174 169 173 174 177 173 168 169 173 166 163 163 164 169 172 164 176 187 187 197 199 205 195 189 169 167 193 199 230 294 315 304 278 272 279 259 249 238 223
252 267 273 245 199 251 247 188 176 172 181 174 179 180 176 170 163 171 177 174 169 165 165 169 174 170 184 185 186 197 201 210 199 185 149 170 180 210 214 222 275 272 227 224 277 272 259 261 228
270 266 274 285 268 253 253 206 172 182 185 178 183 181 176 173 169 172 181 180 172 168 171 176 175 170 183 182 185 202 186 220 214 173 166 170 168 205 254 186 278 297 242 203 254 263 261 253 262
262 270 278 275 270 262 250 237 183 186 203 193 188 177 178 172 169 173 180 181 177 174 172 164 164 169 178 187 191 197 198 209 208 187 171 162 161 193 208 200 264 298 312 292 273 188 275 269 271
276 295 291 284 277 269 255 251 195 174 192 200 190 180 181 173 169 174 178 178 179 175 173 166 163 172 176 184 193 199 208 207 193 172 163 172 166 190 176 187 262 301 330 338 344 5 325 304 296
262 274 277 271 270 267 274 272 229 178 179 188 182 179 181 166 166 169 172 169 176 175 174 169 163 171 177 185 194 193 207 206 190 184 172 183 180 175 167 174 191 242 304 326 341 312 295 293 310
257 266 279 277 258 257 265 251 205 168 170 167 165 162 167 167 163 166 170 172 176 176 175 168 163 170 175 181 187 187 198 199 205 207 190 190 190 169 177 188 160 184 205 235 252 265 290 285 292
257 257 259 276 281 272 240 239 172 155 143 145 144 149 163 167 166 168 169 168 173 174 170 166 165 170 175 179 183 184 190 203 204 204 204 179 193 175 166 174 166 181 200 230 211 261 263 282 285
257 260 271 280 285 292 267 215 179 126 114 144 143 149 154 153 155 160 165 167 170 171 167 168 162 167 175 180 180 183 182 190 199 189 201 193 195 189 149 163 170 183 205 232 213 239 316 350 321
245 266 271 272 284 285 269 248 162 134 144 182 158 147 142 142 153 152 157 162 165 170 167 161 158 166 173 175 183 177 178 178 184 198 191 176 181 163 155 169 174 183 201 207 226 247 258 34 324
240 252 270 284 275 279 281 260 140 150 183 181 174 149 133 139 141 145 150 157 162 166 168 165 161 165 168 172 172 173 177 180 181 186 174 167 177 192 179 175 175 198 221 213 199 237 235 217 282
261 260 258 264 272 275 278 255 150 144 157 195 158 133 131 136 139 138 139 147 157 164 165 166 169 171 172 171 169 177 176 177 182 180 173 170 172 192 179 177 187 210 215 214 213 237 250 253 288